Regional Weather Roundup
Issued by NWS Newport/Morehead, NC

Current Version | Previous Version | Graphics & Text | Print | Product List | Glossary Off
Versions: 1 2 3 4 5 6 7 8 9 10 11 12 13 14 15 16 17 18 19 20 21 22 23 24 25 26 27 28 29 30 31 32 33 34 35 36 37 38 39 40 41 42 43 44 45 46 47 48 49 50

000
ASUS42 KMHX 251113
RWRMHX
WEATHER ROUNDUP FOR EASTERN NORTH CAROLINA
NATIONAL WEATHER SERVICE NEWPORT/MOREHEAD CITY NC
700 AM EDT MON JUL 25 2016

NOTE: "FAIR" INDICATES FEW OR NO CLOUDS BELOW 12,000 FEET
WITH NO SIGNIFICANT WEATHER AND/OR OBSTRUCTIONS TO VISIBILITY

NCZ015>017-031-032-045>047-102-103-251200-
NORTH COAST

CITY           SKY/WX    TMP DP  RH WIND       PRES   REMARKS
EDENTON        PTCLDY    81  81 100 W5        30.06R
ELIZABETH CITY CLEAR     78  76  93 SW7       30.04R
KITTY HAWK     MOSUNNY   80  76  89 SW7       30.04S
MANTEO           N/A     79  79  99 W8        30.06R

$$

NCZ045>047-081-094-103-104-251200-
CENTRAL COAST

CITY           SKY/WX    TMP DP  RH WIND       PRES   REMARKS
FRISCO         CLEAR     81  77  88 W8        30.06R

$$

NCZ095-097-098-100-101-251200-
SOUTHERN COAST

CITY           SKY/WX    TMP DP  RH WIND       PRES   REMARKS
BEAUFORT       CLEAR     82  77  84 W8        30.08R
CEDAR ISLAND   NOT AVBL
JACKSONVILLE   CLEAR     78  75  90 SW6       30.07R
PINEY ISLAND   NOT AVBL
WILMINGTON     CLEAR     77  76  96 CALM      30.08R


$$

NCZ011>013-027>030-043-044-078>080-089-090>093-098-251200-
COASTAL PLAIN

CITY           SKY/WX    TMP DP  RH WIND       PRES   REMARKS
AHOSKIE        CLEAR     75  74  98 CALM      30.05R FOG
CLINTON        CLEAR     76  76 100 CALM      30.07S FOG
ELIZABETHTOWN  CLEAR     78  77  99 S3        30.07S
GOLDSBORO      PTCLDY    77  77 100 S5        30.05R
GREENVILLE     CLEAR     77  77 100 SW5       30.07S FOG
HAVELOCK       CLEAR     76  74  93 SW5       30.09R FOG
KENANSVILLE    NOT AVBL
KINSTON        PTCLDY    77  75  94 SW6       30.07S FOG
NEW BERN       CLEAR     78  75  90 SW7       30.08R
RICHLANDS      CLEAR     75  74  96 CALM      30.08S FOG
ROCKY MOUNT    PTCLDY    76  76 100 S3        30.06R FOG
WASHINGTON     CLOUDY    77  75  95 SW3       30.07R
WHITEVILLE     CLEAR     77  75  95 CALM      30.07R

$$

AMZ130-135-150-152-154-156-158-170-250-252-270-ANZ085-086-088-633-658-670-251200-
MARINE OBSERVATIONS

STATION/POSITION TIME  TEMP    WIND        PRES    WAVE   SWELL
                       AIR SEA DIR/SP/G            HT/PER HT/PER
                 (UTC) (F)     (DEG/KT/KT) (MB)    (FT/S) (FT/S)
CHESAPEAKE LIGHT NOT AVBL
64 E VA BEACH    1050   81 81  240/ 16/ 17 1016.6    3/ 5   2/ 8
DUCK             1000   81 60  240/ 13/ 17 1016.5
2 E DUCK         1011      63                N/A     1/ 9
OREGON INLET     1000   81 85  230/ 14/ 15 1017.4
13E OREGON INLT  1100      82                N/A     2/ 4   2/ 9
HATTERAS CG      1000   80 83  230/  6/  9 1017.4
DIAMOND BUOY     1050   84 85  240/ 16/ 17 1017.8    3/ 5   2/ 8
CAPE LOOKOUT     1100   83     240/  9/ 11 1018.3
BEAUFORT LAB     1000   82 84  250/  4/  8 1017.5
30 SE NEW RVR IN 1008   84 85  240/ 10/ 14 1018.2
30 SE NEW RVR IN 1025      85                N/A     3/ 4
27 SE WRIGHTSVLE 1008   84 84  230/ 10/ 14 1018.4
5 SE WRIGHTSVLE  1008   82 84  270/  6/  8 1019.3
225 S CAPE HAT   1050   83 84  200/ 10/ 12 1019.4    2/ 8   2/ 8
41 SE CHARLESTON 1050   85 86  230/  8/ 10 1017.9    2/ 4   2/ 4

$$




USA.gov is the U.S. government's official web portal to all federal, state and local government web resources and services.